[[{"header":{"parameterUnit":"m.s-1","parameterCategory":1,"la1":30.2991,"la2":30.254,"lo1":-89.0895,"lo2":-89.0444,"dy":0.0017,"dx":0.0017,"nx":28,"ny":28,"refTime":"2024-04-09T09:00:00:Z","depth":0,"parameterNumber":2,"parameterNumberName":"U-component_of_WINDS"},"data":[0,0,0,0,0,0,0,0,0,0,0,0,0,0,0,0,0,0,0,0,0,0,0,0,0,0,0,0,0,0,0,0,0,0,0,0,0,0,0,0,0,0,0,0,0,0,0,0,0,0,0,0,0,0,0,0,0,0,-6.6188,-6.6188,0,-6.6252,-6.6252,-6.6253,-6.6219,-6.6218,-6.6216,-6.6214,-6.6276,-6.6279,-6.6282,0,0,0,0,0,0,0,0,0,0,0,0,0,-6.6033,-6.6036,-6.6187,-6.6188,-6.6189,-6.6252,-6.6252,-6.6253,-6.622,-6.6218,-6.6216,-6.6214,-6.6275,-6.6279,-6.6282,0,0,0,0,0,0,0,0,0,0,0,0,0,-6.6099,-6.6037,-6.6187,-6.618,-6.618,-6.6251,-6.6252,-6.6254,-6.622,-6.6218,-6.6215,-6.6213,-6.6274,-6.6278,-6.6283,-6.6364,0,0,-6.6298,-6.63,0,0,0,0,0,0,0,0,-6.6095,-6.6104,-6.618,-6.6181,-6.6181,-6.6225,-6.622,-6.629,-6.6221,-6.6205,-6.6214,-6.6211,-6.6261,-6.6266,-6.6284,-6.6367,-6.637,-6.6298,-6.6301,-6.6303,-6.6305,0,0,0,0,0,0,0,-6.609,-6.6101,-6.6213,-6.6181,-6.6182,-6.6172,-6.6179,-6.6233,-6.6246,-6.6206,-6.6204,-6.6212,-6.626,-6.6279,-6.6285,-6.637,-6.6298,-6.6302,-6.6305,-6.6307,-6.6523,-6.6525,0,0,0,0,0,0,-6.6087,-6.6098,-6.6211,-6.6215,-6.6131,-6.6177,-6.6185,-6.6213,-6.6245,-6.6248,-6.6214,-6.621,-6.6272,-6.628,-6.6287,-6.6383,-6.6303,-6.6308,-6.631,-6.652,-6.6523,-6.6526,0,0,0,0,0,0,-6.6083,-6.6097,-6.6208,-6.6156,-6.6169,-6.6183,-6.6215,-6.6216,-6.6235,-6.6252,-6.6253,-6.6231,-6.6271,-6.628,-6.6345,-6.6384,-6.631,-6.6314,-6.6517,-6.6521,-6.6525,-6.6576,0,0,0,0,0,0,-6.6079,-6.6096,-6.6128,-6.6157,-6.6172,-6.6266,-6.6218,-6.6219,-6.6244,-6.6239,-6.6268,-6.6271,-6.6269,-6.6338,-6.635,-6.639,-6.6318,-6.6513,-6.6519,-6.6524,-6.657,-6.6581,-6.659,0,0,0,0,0,-6.6074,-6.6138,-6.6129,-6.6143,-6.6212,-6.6268,-6.6277,-6.6275,-6.6247,-6.6278,-6.6289,-6.627,-6.638,-6.6345,-6.6358,-6.64,-6.651,-6.6517,-6.6523,-6.6566,-6.6579,-6.659,0,0,0,0,0,0,-6.6111,-6.6142,-6.6132,-6.6208,-6.6236,-6.6263,-6.6301,-6.6289,-6.6324,-6.6318,-6.6314,-6.6321,-6.6388,-6.6401,-6.6363,-6.648,-6.644,-6.645,-6.6468,-6.6481,-6.6491,-6.6484,-6.6322,0,0,0,0,0,-6.6129,-6.6174,-6.6198,-6.6263,-6.6277,-6.6288,-6.6312,-6.6309,-6.6337,-6.6348,-6.6363,-6.639,-6.6431,-6.6457,-6.6495,-6.6574,-6.6578,-6.6609,-6.6619,-6.6627,-6.6634,-6.6675,-6.6688,-6.6547,-6.6547,-6.6547,0,0,-6.6165,-6.6187,-6.6215,-6.6271,-6.6292,-6.6337,-6.6297,-6.6346,-6.6379,-6.6355,-6.6417,-6.643,-6.646,-6.6531,-6.6564,-6.6544,-6.6674,-6.6635,-6.6641,-6.6644,-6.6683,-6.6696,-6.6708,-6.6552,-6.6551,-6.655,0,0,-6.6252,-6.6275,-6.6331,-6.6354,-6.6387,-6.6394,-6.6408,-6.6437,-6.6444,-6.6508,-6.649,-6.6529,-6.6599,-6.6621,-6.6641,-6.674,-6.6722,-6.6753,-6.6803,-6.6843,-6.6854,-6.6864,-6.6896,-6.6909,-6.676,-6.6761,-6.6761,0,-6.6291,-6.6359,-6.6361,-6.6412,-6.6436,-6.6419,-6.6475,-6.6497,-6.654,-6.6557,-6.6535,-6.6623,-6.6642,-6.6718,-6.6743,-6.6761,-6.6775,-6.6747,-6.6853,-6.6862,-6.6871,-6.6903,-6.6915,-6.6764,-6.6763,-6.6763,-6.6763,0,-6.6405,-6.6453,-6.6494,-6.6539,-6.6568,-6.6621,-6.6629,-6.6659,-6.6655,-6.6664,-6.6728,-6.6751,-6.6793,-6.6812,-6.6807,-6.6887,-6.6874,-6.6853,-6.6812,-6.6888,-6.6917,-6.6929,-6.6768,-6.6767,-6.6766,-6.6766,0,0,-6.6514,-6.6561,-6.6575,-6.6595,-6.6632,-6.6668,-6.6721,-6.6764,-6.6789,-6.6821,-6.6863,-6.6925,-6.6906,-6.6929,-6.6927,-6.6963,-6.7038,-6.6937,-6.6938,-6.6952,-6.7125,-6.7138,-6.7152,-6.7028,-6.7031,-6.7033,-6.7122,0,-6.6602,-6.6694,-6.6698,-6.6782,-6.6825,-6.6811,-6.6857,-6.6884,-6.6895,-6.6933,-6.6944,-6.6987,-6.696,-6.6974,-6.7009,-6.7021,-6.7071,-6.7015,-6.7065,-6.7067,-6.7054,-6.7168,-6.7181,-6.7264,-6.7133,-6.7135,-6.7137,0,-6.6715,-6.6752,-6.6841,-6.6872,-6.689,-6.6932,-6.6971,-6.7009,-6.7039,-6.7044,-6.7072,-6.7065,-6.7118,-6.708,-6.7151,-6.7113,-6.7135,-6.7144,-6.7147,-6.7148,-6.7103,-6.7169,-6.7291,-6.7302,-6.7155,-6.7154,-6.7152,0,-6.6782,-6.6854,-6.6916,-6.6934,-6.6973,-6.7002,-6.7019,-6.7048,-6.7074,-6.7109,-6.7126,-6.7166,-6.7188,-6.7219,-6.7223,-6.7195,-6.7295,-6.7257,-6.7299,-6.7299,-6.7317,-6.7315,-6.744,-6.7337,-6.7337,-6.7337,-6.7336,0,-6.6877,-6.6931,-6.6947,-6.6984,-6.7045,-6.7049,-6.7108,-6.7123,-6.715,-6.7189,-6.7181,-6.7218,-6.7223,-6.7262,-6.7266,-6.7324,-6.7334,-6.7339,-6.7338,-6.7337,-6.7336,-6.7348,-6.7341,-6.734,-6.7339,-6.7339,-6.7338,0,-6.6959,-6.6973,-6.7039,-6.7072,-6.7081,-6.7124,-6.7151,-6.7187,-6.7198,-6.7249,-6.7261,-6.7278,-6.7323,-6.7332,-6.7385,-6.7388,-6.7456,-6.7451,-6.7445,-6.7443,-6.7483,-6.7478,-6.7618,-6.7635,-6.7524,-6.7525,-6.7526,0,-6.7017,-6.7059,-6.7097,-6.7123,-6.7143,-6.7186,-6.7213,-6.722,-6.7248,-6.7287,-6.7318,-6.7363,-6.7398,-6.7471,-6.7487,-6.7528,-6.7522,-6.7569,-6.7528,-6.7525,-6.7519,-6.7515,-6.7518,-6.7575,-6.7576,-6.7577,-6.7578,0,-6.7118,-6.7123,-6.7162,-6.7205,-6.7238,-6.7272,-6.7303,-6.7326,-6.7337,-6.7369,-6.7416,-6.7444,-6.7499,-6.7543,-6.7584,-6.76,-6.759,-6.7591,-6.7602,-6.7599,-6.7593,-6.7594,-6.7462,-6.7587,-6.7586,-6.7585,-6.7585,-6.7584,-6.7187,-6.7223,-6.7256,-6.7301,-6.7326,-6.7356,-6.7392,-6.7408,-6.7448,-6.7494,-6.7496,-6.7547,-6.7577,-6.7632,-6.7651,-6.769,-6.7675,-6.7692,-6.7696,-6.7699,-6.7701,-6.7591,-6.7698,-6.7698,-6.7698,-6.7698,-6.7698,0,-6.7285,-6.7306,-6.7347,-6.7393,-6.7428,-6.7419,-6.7454,-6.7484,-6.7529,-6.7559,-6.7595,-6.7649,-6.7692,-6.7713,-6.7755,-6.7782,-6.7779,-6.7793,-6.7789,-6.7792,-6.7714,-6.7698,-6.7795,-6.7795,-6.7795,-6.7795,-6.7795,-6.7795,-6.7339,-6.7399,-6.7408,-6.7481,-6.7501,-6.7552,-6.7572,-6.76,-6.7624,-6.7685,-6.7721,-6.7736,-6.7762,-6.7807,-6.7845,-6.7851,-6.7865,-6.7881,-6.7883,-6.7808,-6.7798,-6.7788,-6.7774,-6.7885,-6.7885,-6.7958,-6.7959,-6.7959]},{"header":{"parameterUnit":"m.s-1","parameterCategory":1,"la1":30.2991,"la2":30.254,"lo1":-89.0895,"lo2":-89.0444,"dy":0.0017,"dx":0.0017,"nx":28,"ny":28,"refTime":"2024-04-09T09:00:00:Z","depth":0,"parameterNumber":3,"parameterNumberName":"V-component_of_WINDS"},"data":[0,0,0,0,0,0,0,0,0,0,0,0,0,0,0,0,0,0,0,0,0,0,0,0,0,0,0,0,0,0,0,0,0,0,0,0,0,0,0,0,0,0,0,0,0,0,0,0,0,0,0,0,0,0,0,0,0,0,3.8198,3.8199,0,3.8238,3.8239,3.8239,3.8282,3.8283,3.8283,3.8284,3.8322,3.8323,3.8323,0,0,0,0,0,0,0,0,0,0,0,0,0,3.8157,3.8158,3.8198,3.8199,3.8199,3.8238,3.8239,3.8239,3.8282,3.8283,3.8284,3.8284,3.8322,3.8322,3.8323,0,0,0,0,0,0,0,0,0,0,0,0,0,3.8184,3.8158,3.8198,3.8225,3.8228,3.8238,3.8239,3.824,3.8282,3.8283,3.8284,3.8285,3.8322,3.8322,3.8323,3.8309,0,0,3.8325,3.8325,0,0,0,0,0,0,0,0,3.8182,3.8185,3.8221,3.8224,3.8227,3.8256,3.8238,3.8263,3.8282,3.8261,3.8284,3.8285,3.8299,3.8302,3.8307,3.831,3.8312,3.8325,3.8326,3.8326,3.8326,0,0,0,0,0,0,0,3.818,3.8184,3.8214,3.8221,3.8225,3.8235,3.824,3.8243,3.8275,3.8263,3.8267,3.8271,3.8301,3.8306,3.8308,3.8313,3.8325,3.8326,3.8326,3.8326,3.8308,3.8307,0,0,0,0,0,0,3.8175,3.8182,3.8213,3.8215,3.8206,3.8235,3.824,3.8246,3.8275,3.828,3.827,3.8273,3.8305,3.8308,3.831,3.8297,3.8326,3.8326,3.8327,3.8308,3.8307,3.8306,0,0,0,0,0,0,3.8174,3.8177,3.8211,3.82,3.8205,3.8235,3.824,3.8246,3.8252,3.828,3.8285,3.827,3.8306,3.8309,3.8309,3.8298,3.8327,3.8327,3.831,3.8308,3.8307,3.8268,0,0,0,0,0,0,3.8172,3.8176,3.8171,3.8199,3.8205,3.821,3.824,3.8246,3.8253,3.8257,3.8281,3.8286,3.8307,3.8308,3.831,3.83,3.8328,3.8311,3.8309,3.8307,3.8271,3.8266,3.8262,0,0,0,0,0,3.8171,3.8158,3.8171,3.8175,3.82,3.821,3.8213,3.8238,3.8252,3.8247,3.8266,3.8285,3.8299,3.8308,3.831,3.83,3.8311,3.8309,3.8307,3.8273,3.8267,3.8262,0,0,0,0,0,0,3.8127,3.8162,3.8177,3.8173,3.8188,3.8217,3.8212,3.823,3.8241,3.8244,3.8273,3.8279,3.8276,3.8288,3.8297,3.8288,3.8308,3.8306,3.8281,3.8275,3.8271,3.8269,3.8328,0,0,0,0,0,3.8117,3.8123,3.8153,3.8146,3.8153,3.8181,3.8186,3.8204,3.8221,3.8227,3.8245,3.826,3.8268,3.8272,3.828,3.8272,3.8279,3.8267,3.8262,3.8258,3.8257,3.8255,3.825,3.83,3.83,3.83,0,0,3.8096,3.8116,3.8118,3.8138,3.8152,3.8157,3.8186,3.819,3.8194,3.8227,3.823,3.8243,3.8261,3.8258,3.8257,3.8268,3.8244,3.8256,3.8252,3.8253,3.8252,3.8248,3.8244,3.8298,3.8299,3.8299,0,0,3.8062,3.8077,3.8075,3.8088,3.8109,3.8128,3.8127,3.8153,3.8164,3.8167,3.8193,3.8197,3.821,3.8222,3.823,3.8201,3.822,3.8203,3.818,3.8178,3.8174,3.817,3.8162,3.8158,3.8201,3.8201,3.8201,0,3.8034,3.8043,3.807,3.8073,3.8082,3.8113,3.8111,3.8123,3.8145,3.815,3.8161,3.8179,3.8193,3.8194,3.8187,3.8192,3.8192,3.8201,3.8172,3.8169,3.8166,3.8158,3.8155,3.8199,3.8199,3.8199,3.82,0,3.8008,3.8014,3.8009,3.8032,3.804,3.8039,3.8067,3.8071,3.8088,3.8106,3.8109,3.8127,3.8141,3.8142,3.8158,3.8145,3.8151,3.8167,3.8188,3.8159,3.8152,3.8149,3.8196,3.8197,3.8197,3.8198,0,0,3.7947,3.7986,3.7984,3.7995,3.8021,3.8026,3.8028,3.8042,3.8046,3.806,3.8063,3.8073,3.8088,3.8097,3.8115,3.8113,3.8091,3.8129,3.813,3.8123,3.8079,3.8069,3.8064,3.8103,3.8103,3.8102,3.8078,0,3.7919,3.7925,3.795,3.7949,3.7955,3.7986,3.7987,3.8003,3.8019,3.8027,3.8044,3.8052,3.807,3.8076,3.8075,3.8094,3.8083,3.8096,3.8106,3.8106,3.8102,3.8061,3.8049,3.8026,3.8076,3.8075,3.8075,0,3.7886,3.79,3.79,3.7927,3.7931,3.7932,3.7948,3.7955,3.7973,3.7985,3.7996,3.8016,3.802,3.8038,3.8043,3.8051,3.8057,3.8067,3.8066,3.8069,3.809,3.8064,3.8018,3.8015,3.8071,3.8071,3.8071,0,3.7845,3.7863,3.7866,3.7874,3.7905,3.7906,3.7919,3.7938,3.7946,3.7959,3.7965,3.7978,3.7985,3.7994,3.8018,3.8029,3.8021,3.8041,3.8031,3.8031,3.8029,3.8029,3.7986,3.803,3.803,3.803,3.803,0,3.7811,3.781,3.7848,3.785,3.7849,3.7878,3.7877,3.7892,3.791,3.7915,3.794,3.7945,3.7975,3.7982,3.8,3.8002,3.8005,3.8015,3.802,3.8014,3.8013,3.8019,3.8021,3.8029,3.803,3.803,3.803,0,3.7765,3.779,3.7795,3.7825,3.7832,3.7831,3.7856,3.7859,3.7877,3.7883,3.7886,3.7914,3.7924,3.7948,3.7964,3.7976,3.7975,3.7983,3.7969,3.7972,3.7962,3.7963,3.7922,3.7918,3.7963,3.7963,3.7963,0,3.7742,3.7743,3.7773,3.7779,3.7791,3.78,3.7809,3.7836,3.7844,3.7866,3.7866,3.7878,3.789,3.7905,3.7926,3.7939,3.7948,3.7933,3.795,3.7944,3.795,3.795,3.7951,3.7929,3.7929,3.7928,3.7928,0,3.7701,3.7714,3.7725,3.7741,3.7751,3.7765,3.778,3.7783,3.7814,3.7821,3.7833,3.7842,3.7859,3.7871,3.7888,3.79,3.7919,3.7922,3.7921,3.7915,3.7908,3.7913,3.796,3.7923,3.7924,3.7924,3.7924,3.7924,3.7667,3.767,3.7692,3.7704,3.7718,3.7732,3.7737,3.7756,3.7766,3.7784,3.7799,3.7809,3.7828,3.7852,3.7864,3.7872,3.7881,3.7879,3.7879,3.7878,3.7876,3.7905,3.7874,3.7875,3.7875,3.7875,3.7875,0,3.7628,3.7644,3.7655,3.7677,3.7686,3.7704,3.7722,3.7729,3.7738,3.7755,3.7766,3.778,3.7792,3.7814,3.7829,3.7831,3.784,3.7834,3.7835,3.7837,3.7866,3.7866,3.7826,3.7826,3.7826,3.7826,3.7826,3.7826,3.761,3.7615,3.763,3.7643,3.7659,3.7671,3.7679,3.7692,3.7706,3.772,3.7731,3.7746,3.7765,3.7781,3.7793,3.7799,3.7804,3.7795,3.7804,3.7831,3.7835,3.784,3.784,3.7796,3.7796,3.7776,3.7775,3.7775]}]]